< < Back
Terminal Aerodrome Forecast


Current Version              Previous Versions:   1  2  3  4  5  6  7  8  9  

Terminal Aerodrome Forecast

366
FTUS44 KBMX 130436 AAA
TAFBHM
TAF AMD
KBHM 130436Z 1305/1324 35010G17KT P6SM SKC
     FM130600 35008KT P6SM SKC=



Latest METAR

971
SAUS70 KWBC 130700 RRB
MTRBHM
METAR KBHM 130653Z 34007KT 10SM CLR 03/M04 A3034 RMK AO2 SLP272
T00331039


USA.gov is the U.S. government's official web portal to all federal, state and local government web resources and services.